Regional Weather Roundup
Issued by NWS New Orleans/Baton Rouge, LA

Home | Current Version | Previous Version | Text Only | Print | Product List | Glossary On
Versions: 1 2 3 4 5 6 7 8 9 10 11 12 13 14 15 16 17 18 19 20 21 22 23 24 25 26 27 28 29 30 31 32 33 34 35 36 37 38 39 40 41 42 43 44 45 46 47 48 49 50
000
ASUS44 KLIX 130510
RWRLIX
NEW ORLEANS REGIONAL WEATHER ROUNDUP
NATIONAL WEATHER SERVICE NEW ORLEANS LA
1200 AM CDT SUN JUL 13 2014

NOTE: "FAIR" INDICATES FEW OR NO CLOUDS BELOW 12,000 FEET WITH NO
      SIGNIFICANT WEATHER AND/OR OBSTRUCTIONS TO VISIBILITY.
      SKY/WX - SKY CONDITION AND SIGNIFICANT WEATHER.
      TMP - AIR TEMPERATURE.     DP    - DEWPOINT TEMPERATURE.
      RH  - RELATIVE HUMIDITY.   PRES  - PRESSURE.
      HI  - HEAT INDEX.          WCI   - WIND CHILL INDEX.

*  THESE STATIONS ARE NOT NWS OR FAA STATIONS AND ARE NOT UNDER
   NWS QUALITY CONTROL.

LAZ038-040-048-061>063-065>067-069-130600-
SOUTHEAST LOUISIANA

CITY           SKY/WX    TMP DP  RH WIND       PRES   REMARKS
N.O. AUDUBON     N/A     85  75  73 MISG        N/A
N.O. INTL ARPT PTCLDY    81  74  79 SE5       30.09S
N.O. LAKEFRONT CLEAR     83  74  74 CALM      30.09S
N.O. DOWNTOWN*   N/A     84  72  65 CALM      30.09F
SLIDELL        CLEAR     75  72  90 CALM      30.09S
BATON ROUGE    MOCLDY    77  74  90 SE6       30.08F
BOOTHVILLE     CLEAR     82  77  84 CALM      30.08F
BELLE CHASSE     N/A     77  73  87 CALM      30.09S
BOGALUSA*        N/A     76  72  87 CALM      30.10F
GALLIANO*      NOT AVBL
NEW ROADS*       N/A     78  76  95 CALM      30.08S
GONZALES*        N/A     77  76  97 CALM      30.09S
HAMMOND*       CLEAR     77  72  83 CALM      30.10S
HOUMA*         CLOUDY    79  70  73 CALM      30.10S
PORT FOURCHON* CLEAR     86  73  66 CALM      30.11S

$$

MSZ070-080>082-130600-
SOUTHERN MISSISSIPPI

CITY           SKY/WX    TMP DP  RH WIND       PRES   REMARKS
MCCOMB         PTCLDY    75  73  93 CALM      30.10S
GULFPORT       CLEAR     80  74  81 CALM      30.07F
BILOXI         NOT AVBL
PASCAGOULA     PTCLDY    75  74  96 CALM      30.08F FOG

$$

COASTAL OBSERVATIONS
LAKE AND NEARSHORE STATIONS

STATION/POSITION TIME  TEMP    WIND        PRES    WAVE
                       AIR SEA DIR/SP/G            HT/PER
                 (UTC) (F)     (DEG/KT/KT) (MB)    (FT/S)
PASCAGOULA       0500   81     310/  3/  4 1018.0
WAVELAND YACHT   0500   80     330/  2/  2 1018.2
GRAND ISLE       0500   85 90  240/  2/  2 1019.6
SOUTHWEST PASS   0500   84 85  200/  1/  2 1019.0
NEW CANAL        0500   83 86   CALM  /  3 1019.3
SHELL BEACH      0500   84 85  160/  1/  2 1018.7

OFFSHORE STATIONS

STATION/POSITION TIME  TEMP    WIND        PRES    WAVE
                       AIR SEA DIR/SP/G            HT/PER
                 (UTC) (F)     (DEG/KT/KT) (MB)    (FT/S)
64 S DAUPHIN ISL 0426   83 88  210/  4/  4 1019.2

$$




USA.gov is the U.S. government's official web portal to all federal, state and local government web resources and services.